GW1009 Weather Reports


time (UTC)temp
C
wind
direction
speed
KPH
gust
KPH
rain 1hr
cm
rain 24hr
cm
rain mn
cm
humidity
%
barometer
mb
20260906040019 15 267 0.0 0.0 0.00 0.00 0.00 90 1012.6
20260906035519 15 267 0.0 0.0 0.00 0.00 0.00 90 1012.6
20260906035019 15 267 0.0 0.0 0.00 0.00 0.00 90 1012.6
20260906034524 15 267 0.0 0.0 0.00 0.00 0.00 90 1012.6
20260906034017 15 267 0.0 0.0 0.00 0.00 0.00 90 1012.5
20260906033517 15 267 0.0 0.0 0.00 0.00 0.00 90 1012.5
20260906033017 15 267 0.0 0.0 0.00 0.00 0.00 90 1012.5
20260906032517 15 267 0.0 0.0 0.00 0.00 0.00 90 1012.5
20260906032017 15 267 0.0 0.0 0.00 0.00 0.00 90 1012.5
20260906031516 15 267 0.0 0.0 0.00 0.00 0.00 90 1012.5
20260906031016 15 267 0.0 0.0 0.00 0.00 0.00 90 1012.4
20260906030516 15 267 0.0 0.0 0.00 0.00 0.00 90 1012.3
20260906030016 15 267 0.0 0.0 0.00 0.00 0.00 90 1012.3
20260906025515 15 267 0.0 0.0 0.00 0.00 0.00 90 1012.3
20260906025017 15 267 0.0 0.0 0.00 0.00 0.00 90 1012.2
20260906024515 15 267 0.0 0.0 0.00 0.00 0.00 90 1012.3
20260906024016 15 360 0.0 0.0 0.00 0.00 0.00 90 1012.3
20260906023515 15 360 0.0 0.0 0.00 0.00 0.00 90 1012.3
20260906023016 15 241 0.0 0.0 0.00 0.00 0.00 89 1012.3
20260906022515 15 267 0.0 0.0 0.00 0.00 0.00 89 1012.3
20260906022014 15 267 0.0 0.0 0.00 0.00 0.00 89 1012.3
20260906021515 15 267 0.0 0.0 0.00 0.00 0.00 89 1012.3
20260906021014 15 267 0.0 0.0 0.00 0.00 0.00 89 1012.3
20260906020515 15 268 0.0 0.0 0.00 0.00 0.00 89 1012.2
20260906020016 15 268 0.0 0.0 0.00 0.00 0.00 88 1012.3
20260906015513 15 268 0.0 0.0 0.00 0.00 0.00 88 1012.4
20260906015013 15 268 0.0 0.0 0.00 0.00 0.00 88 1012.4
20260906014520 15 268 0.0 0.0 0.00 0.00 0.00 88 1012.3
20260906014012 15 268 0.0 0.0 0.00 0.00 0.00 88 1012.3
20260906013512 16 268 0.0 0.0 0.00 0.00 0.00 88 1012.2
20260906013012 16 275 0.0 0.0 0.00 0.00 0.00 88 1012.2
20260906012517 16 287 0.0 0.0 0.00 0.00 0.00 88 1012.2
20260906012011 16 288 0.0 0.0 0.00 0.00 0.00 88 1012.2
20260906011511 15 227 0.0 0.0 0.00 0.00 0.00 88 1012.3
20260906011015 15 227 0.0 0.0 0.00 0.00 0.00 88 1012.3
20260906010510 15 223 0.0 0.0 0.00 0.00 0.00 88 1012.2
20260906010011 15 222 0.0 0.0 0.00 0.00 0.00 88 1012.1
20260906005510 16 222 0.0 0.0 0.00 0.00 0.00 88 1012.2
20260906005010 16 222 0.0 1.6 0.00 0.00 0.00 87 1012.1
20260906004510 16 220 0.0 0.0 0.00 0.00 0.00 87 1012.0
20260906004013 16 220 0.0 0.0 0.00 0.00 0.00 87 1011.9
20260906003510 16 220 0.0 0.0 0.00 0.00 0.00 87 1011.7
20260906003010 16 220 0.0 0.0 0.00 0.00 0.00 87 1011.8
20260906002510 16 220 0.0 0.0 0.00 0.00 0.00 87 1011.9
20260906002009 16 220 0.0 0.0 0.00 0.00 0.00 86 1012.0
20260906001509 16 220 0.0 0.0 0.00 0.00 0.00 86 1012.1
20260906001008 16 220 0.0 0.0 0.00 0.00 0.00 86 1012.1
20260906000507 16 220 0.0 0.0 0.00 0.00 0.00 86 1011.9
20260906000008 16 220 0.0 0.0 0.00 0.00 0.00 85 1011.9
20260905235507 16 218 0.0 0.0 0.00 0.00 0.00 85 1012.0
20260905235009 16 220 0.0 0.0 0.00 0.00 0.00 84 1011.9
20260905234506 16 360 0.0 0.0 0.00 0.00 0.00 84 1011.8
20260905234007 16 220 0.0 0.0 0.00 0.00 0.00 84 1011.7
20260905233507 17 360 0.0 0.0 0.00 0.00 0.00 83 1011.7
20260905233010 17 360 0.0 0.0 0.00 0.00 0.00 82 1011.8
20260905232506 17 360 0.0 3.2 0.00 0.00 0.00 82 1011.7
20260905232006 17 220 0.0 3.2 0.00 0.00 0.00 81 1011.7
20260905231512 17 309 0.0 0.0 0.00 0.00 0.00 80 1011.8
20260905231006 17 309 0.0 0.0 0.00 0.00 0.00 80 1011.8
20260905230506 17 309 0.0 0.0 0.00 0.00 0.00 80 1011.8
20260905230006 17 309 0.0 3.2 0.00 0.00 0.00 79 1011.8
20260905225505 18 309 0.0 3.2 0.00 0.00 0.00 79 1011.8
20260905225005 17 309 0.0 3.2 0.00 0.00 0.00 78 1011.9
20260905224505 17 309 0.0 4.8 0.00 0.00 0.00 78 1011.9
20260905224007 18 309 1.6 4.8 0.00 0.00 0.00 78 1011.9
20260905223506 18 309 3.2 8.0 0.00 0.00 0.00 77 1011.8
20260905223004 18 317 0.0 8.0 0.00 0.00 0.00 77 1011.8
20260905222506 18 301 3.2 8.0 0.00 0.00 0.00 76 1011.7
20260905222003 18 290 3.2 6.4 0.00 0.00 0.00 78 1011.6
20260905221503 18 292 3.2 6.4 0.00 0.00 0.00 78 1011.6
20260905221002 18 262 0.0 4.8 0.00 0.00 0.00 79 1011.4
20260905220506 18 303 0.0 4.8 0.00 0.00 0.00 80 1011.4
20260905220003 18 300 0.0 8.0 0.00 0.00 0.00 79 1011.3
20260905215503 18 282 3.2 8.0 0.00 0.00 0.00 78 1011.3
20260905215002 18 285 3.2 6.4 0.00 0.00 0.00 78 1011.4
20260905214503 18 273 3.2 8.0 0.00 0.00 0.00 79 1011.3
20260905214002 18 283 3.2 8.0 0.00 0.00 0.00 78 1011.2
20260905213502 18 305 4.8 8.0 0.00 0.00 0.00 77 1011.1
20260905213002 18 324 3.2 12.9 0.00 0.00 0.00 77 1011.1
20260905212502 18 295 4.8 12.9 0.00 0.00 0.00 76 1011.1
20260905212001 18 292 6.4 14.5 0.00 0.00 0.00 75 1011.1
20260905211501 18 273 4.8 14.5 0.00 0.00 0.00 74 1011.1
20260905211002 18 309 4.8 14.5 0.00 0.00 0.00 73 1011.0
20260905210503 18 302 4.8 12.9 0.00 0.00 0.00 72 1011.1
20260905210001 19 286 4.8 12.9 0.00 0.00 0.00 73 1011.1
20260905205501 19 288 3.2 9.7 0.00 0.00 0.00 73 1010.9
20260905205001 19 304 3.2 8.0 0.00 0.00 0.00 74 1011.0
20260905204502 19 311 3.2 8.0 0.00 0.00 0.00 75 1010.9
20260905204104 19 307 3.2 8.0 0.00 0.00 0.00 75 1011.0
20260905203600 19 309 4.8 6.4 0.00 0.00 0.00 75 1011.0
20260905203102 19 306 0.0 6.4 0.00 0.00 0.00 74 1011.0
20260905202600 19 306 1.6 8.0 0.00 0.00 0.00 74 1011.0
20260905202059 19 306 4.8 8.0 0.00 0.00 0.00 72 1011.1
20260905201600 20 306 3.2 8.0 0.00 0.00 0.00 72 1011.0
20260905201059 20 309 3.2 11.3 0.00 0.00 0.00 71 1010.9
20260905200559 19 309 3.2 8.0 0.00 0.00 0.00 71 1010.9
20260905200100 19 303 1.6 6.4 0.00 0.00 0.00 71 1010.8
20260905195558 19 315 1.6 11.3 0.00 0.00 0.00 72 1010.8
20260905195100 18 302 4.8 11.3 0.00 0.00 0.00 71 1010.9
20260905194558 18 313 3.2 8.0 0.00 0.00 0.00 72 1010.8
20260905194057 18 302 4.8 8.0 0.00 0.00 0.00 72 1010.8
20260905193557 18 305 3.2 6.4 0.00 0.00 0.00 73 1010.8
20260905193057 18 302 1.6 6.4 0.00 0.00 0.00 71 1010.8
20260905192557 18 314 0.0 6.4 0.00 0.00 0.00 72 1010.8
20260905192100 18 314 1.6 6.4 0.00 0.00 0.00 71 1010.8
20260905191557 18 298 0.0 14.5 0.00 0.00 0.00 72 1010.9
20260905191057 19 301 4.8 14.5 0.00 0.00 0.00 69 1010.8
20260905190556 19 333 8.0 14.5 0.00 0.00 0.00 69 1010.9
20260905185558 20 292 6.4 9.7 0.00 0.00 0.00 66 1010.7
20260905185056 20 314 4.8 9.7 0.00 0.00 0.00 64 1010.7
20260905184601 20 309 3.2 8.0 0.00 0.00 0.00 64 1010.7
20260905184054 20 306 3.2 8.0 0.00 0.00 0.00 62 1010.8
20260905183555 20 333 3.2 9.7 0.00 0.00 0.00 64 1010.8
20260905183117 20 322 6.4 12.9 0.00 0.00 0.00 64 1010.8
20260905182554 20 322 4.8 12.9 0.00 0.00 0.00 64 1010.7
20260905182054 20 333 4.8 9.7 0.00 0.00 0.00 66 1010.8
20260905181559 20 293 0.0 14.5 0.00 0.00 0.00 62 1010.8
20260905181056 20 302 8.0 14.5 0.00 0.00 0.00 61 1010.8
20260905180553 20 302 4.8 9.7 0.00 0.00 0.00 63 1010.8
20260905180052 20 325 4.8 12.9 0.00 0.00 0.00 63 1010.8
20260905175551 20 302 8.0 12.9 0.00 0.00 0.00 64 1010.8
20260905175052 20 315 3.2 9.7 0.00 0.00 0.00 65 1010.8
20260905174551 20 327 3.2 12.9 0.00 0.00 0.00 64 1010.9
20260905174051 20 311 4.8 12.9 0.00 0.00 0.00 64 1010.9
20260905173551 20 297 6.4 14.5 0.00 0.00 0.00 64 1010.9
20260905173051 20 306 6.4 16.1 0.00 0.00 0.00 62 1010.8
20260905172551 20 315 4.8 16.1 0.00 0.00 0.00 62 1010.9
20260905172050 20 240 0.0 9.7 0.00 0.00 0.00 63 1010.9
20260905171550 20 323 4.8 12.9 0.00 0.00 0.00 65 1010.9
20260905171049 20 295 4.8 17.7 0.00 0.00 0.00 64 1010.9
20260905170549 20 300 8.0 17.7 0.00 0.00 0.00 64 1011.0
20260905170049 20 9 4.8 12.9 0.00 0.00 0.00 64 1011.0
20260905165548 20 293 3.2 20.9 0.00 0.00 0.00 66 1011.0
20260905165049 20 306 11.3 20.9 0.00 0.00 0.00 63 1011.0
20260905164547 19 341 3.2 16.1 0.00 0.00 0.00 66 1011.0
20260905164046 19 355 6.4 17.7 0.00 0.00 0.00 65 1011.1
20260905163545 19 331 11.3 19.3 0.00 0.00 0.00 69 1011.0
20260905163045 18 294 4.8 24.1 0.00 0.00 0.00 69 1011.1
20260905162547 19 314 11.3 24.1 0.00 0.00 0.00 68 1011.1
20260905162043 19 11 6.4 14.5 0.00 0.00 0.00 68 1011.2
20260905161542 18 349 6.4 16.1 0.00 0.00 0.00 68 1011.2
20260905161042 18 316 9.7 20.9 0.00 0.00 0.00 71 1011.3
20260905160541 18 348 9.7 20.9 0.00 0.00 0.00 71 1011.2
20260905160041 18 325 8.0 19.3 0.00 0.00 0.00 70 1011.2
20260905155539 18 339 6.4 17.7 0.00 0.00 0.00 73 1011.2
20260905155040 18 317 4.8 9.7 0.00 0.00 0.00 72 1011.4
20260905154539 17 309 3.2 17.7 0.00 0.00 0.00 74 1011.4
20260905154039 17 299 9.7 22.5 0.00 0.00 0.00 73 1011.4
20260905153538 18 320 12.9 22.5 0.00 0.00 0.00 73 1011.4
20260905153052 18 318 11.3 19.3 0.00 0.00 0.00 73 1011.5
20260905152538 18 313 9.7 19.3 0.00 0.00 0.00 73 1011.5
20260905152035 18 293 12.9 19.3 0.00 0.00 0.00 74 1011.4
20260905151540 17 311 9.7 19.3 0.00 0.00 0.00 78 1011.5
20260905151034 17 306 6.4 17.7 0.00 0.00 0.00 79 1011.6
20260905150533 17 320 11.3 17.7 0.00 0.00 0.00 78 1011.7
20260905150033 17 343 8.0 17.7 0.00 0.00 0.00 79 1011.6
20260905145533 17 319 11.3 17.7 0.00 0.00 0.00 80 1011.6
20260905145031 17 300 8.0 17.7 0.00 0.00 0.00 81 1011.5
20260905144531 16 290 9.7 17.7 0.00 0.00 0.00 82 1011.5
20260905144031 16 304 11.3 17.7 0.00 0.00 0.00 82 1011.6
20260905143532 16 302 9.7 17.7 0.00 0.00 0.00 82 1011.5
20260905143035 16 327 4.8 17.7 0.00 0.00 0.00 83 1011.4
20260905142532 16 360 8.0 17.7 0.00 0.00 0.00 83 1011.5
20260905142030 16 304 8.0 19.3 0.00 0.00 0.00 83 1011.4
20260905141530 16 323 9.7 19.3 0.00 0.00 0.00 83 1011.4
20260905141031 16 321 9.7 19.3 0.00 0.00 0.00 83 1011.4
20260905140532 16 308 8.0 17.7 0.00 0.00 0.00 82 1011.4
20260905140030 16 313 11.3 17.7 0.00 0.00 0.00 81 1011.4
20260905135630 17 323 6.4 14.5 0.00 0.00 0.00 81 1011.4
20260905135029 17 311 6.4 14.5 0.00 0.00 0.00 81 1011.4
20260905134526 16 320 4.8 16.1 0.00 0.00 0.00 84 1011.5
20260905134025 16 307 9.7 16.1 0.00 0.00 0.00 85 1011.3
20260905133525 16 327 4.8 17.7 0.00 0.00 0.00 84 1011.4
20260905133030 16 317 9.7 17.7 0.00 0.00 0.00 85 1011.6
20260905132524 16 360 4.8 14.5 0.00 0.00 0.00 86 1011.6
20260905132023 16 302 8.0 16.1 0.00 0.00 0.00 87 1011.7
20260905131530 16 319 9.7 16.1 0.00 0.00 0.00 89 1011.5
20260905131020 16 355 6.4 14.5 0.00 0.00 0.00 90 1011.4
20260905130518 15 321 8.0 14.5 0.00 0.00 0.00 91 1011.4
20260905130031 15 309 4.8 14.5 0.00 0.00 0.00 92 1011.5
20260905125515 15 315 4.8 14.5 0.00 0.00 0.00 93 1011.4
20260905125015 15 311 8.0 14.5 0.00 0.00 0.00 93 1011.4
20260905124515 15 292 8.0 14.5 0.00 0.00 0.00 93 1011.5
20260905124014 15 313 4.8 8.0 0.00 0.00 0.00 94 1011.5
20260905123514 15 306 3.2 6.4 0.00 0.00 0.00 94 1011.4
20260905123014 15 304 3.2 8.0 0.00 0.00 0.00 94 1011.4
20260905122518 15 360 4.8 8.0 0.00 0.00 0.00 94 1011.3
20260905122012 14 303 3.2 8.0 0.00 0.00 0.00 94 1011.1
20260905121512 14 305 4.8 8.0 0.00 0.00 0.00 94 1011.1
20260905121012 14 304 4.8 9.7 0.00 0.00 0.00 94 1011.1
20260905120512 14 302 4.8 9.7 0.00 0.00 0.00 94 1011.0
20260905120012 14 277 6.4 12.9 0.00 0.00 0.00 94 1011.1
20260905115512 14 300 3.2 12.9 0.00 0.00 0.00 94 1011.2
20260905115012 14 294 3.2 11.3 0.00 0.00 0.00 94 1011.2
20260905114510 14 284 3.2 12.9 0.00 0.00 0.00 94 1011.1
20260905114009 14 319 4.8 12.9 0.00 0.00 0.00 94 1010.9
20260905113509 14 290 3.2 8.0 0.00 0.00 0.00 94 1010.9
20260905113012 14 300 3.2 8.0 0.00 0.00 0.00 94 1010.8
20260905112508 14 300 3.2 6.4 0.00 0.00 0.00 94 1010.8
20260905112010 14 306 0.0 3.2 0.00 0.00 0.00 94 1010.6
20260905111507 14 306 0.0 3.2 0.00 0.00 0.00 94 1010.5
20260905111007 14 306 0.0 9.7 0.00 0.00 0.00 94 1010.3
20260905110507 14 306 4.8 9.7 0.00 0.00 0.00 94 1010.2
20260905110007 14 300 1.6 4.8 0.00 0.00 0.00 94 1010.2
20260905105506 14 300 1.6 8.0 0.00 0.00 0.00 94 1010.0
20260905105007 14 299 3.2 8.0 0.00 0.00 0.00 94 1010.0
20260905104506 14 277 3.2 8.0 0.00 0.00 0.00 94 1009.9
20260905104006 14 312 4.8 8.0 0.00 0.00 0.00 94 1010.0
20260905103506 13 306 0.0 0.0 0.00 0.00 0.00 94 1010.0
20260905103008 13 306 0.0 0.0 0.00 0.00 0.00 93 1010.0
20260905102505 13 306 0.0 0.0 0.00 0.00 0.00 93 1010.0
20260905102004 14 306 0.0 0.0 0.00 0.00 0.00 93 1010.0
20260905101504 14 306 0.0 0.0 0.00 0.00 0.00 93 1009.9
20260905101003 14 306 0.0 0.0 0.00 0.00 0.00 93 1009.8
20260905100503 14 306 0.0 0.0 0.00 0.00 0.00 93 1009.7
20260905100003 14 306 0.0 0.0 0.00 0.00 0.00 93 1009.7
20260905095504 14 306 0.0 0.0 0.00 0.00 0.00 93 1009.8
20260905095004 14 306 0.0 0.0 0.00 0.00 0.00 93 1009.9
20260905094504 14 306 0.0 0.0 0.00 0.00 0.00 93 1009.9
20260905094002 14 306 0.0 0.0 0.00 0.00 0.00 93 1009.9
20260905093502 14 306 0.0 0.0 0.00 0.00 0.00 93 1009.9
20260905093001 14 306 0.0 0.0 0.00 0.00 0.00 93 1009.9
20260905092501 14 306 0.0 0.0 0.00 0.00 0.00 93 1009.9
20260905092059 14 306 0.0 0.0 0.00 0.00 0.00 92 1009.9
20260905091601 14 305 0.0 0.0 0.00 0.00 0.00 92 1009.8
20260905091058 14 304 0.0 0.0 0.00 0.00 0.00 92 1009.8
20260905090558 14 320 0.0 0.0 0.00 0.00 0.00 92 1009.7
20260905090058 14 320 0.0 0.0 0.00 0.00 0.00 92 1009.7
20260905085558 14 320 0.0 0.0 0.00 0.00 0.00 92 1009.8
20260905085058 14 329 0.0 0.0 0.00 0.00 0.00 92 1009.9
20260905084656 14 329 0.0 0.0 0.00 0.00 0.00 92 1009.9
20260905084056 14 329 0.0 0.0 0.00 0.00 0.00 91 1009.8
20260905083556 14 329 0.0 0.0 0.00 0.00 0.00 91 1009.9
20260905083055 15 329 0.0 0.0 0.00 0.00 0.00 91 1009.9
20260905082554 15 329 0.0 0.0 0.00 0.00 0.00 91 1010.0
20260905082053 15 329 0.0 0.0 0.00 0.00 0.00 91 1010.0
20260905081553 15 329 0.0 0.0 0.00 0.00 0.00 91 1010.0
20260905081052 15 329 0.0 0.0 0.00 0.00 0.00 91 1010.0
20260905080552 15 329 0.0 0.0 0.00 0.00 0.00 91 1010.0
20260905080054 15 329 0.0 0.0 0.00 0.00 0.00 91 1010.0
20260905075554 15 329 0.0 0.0 0.00 0.00 0.00 91 1010.1
20260905075054 15 329 0.0 0.0 0.00 0.00 0.00 91 1010.1
20260905074557 15 329 0.0 0.0 0.00 0.00 0.00 91 1010.1
20260905074052 15 329 0.0 0.0 0.00 0.00 0.00 91 1010.0
20260905073551 15 329 0.0 0.0 0.00 0.00 0.00 90 1010.0
20260905073101 15 329 0.0 0.0 0.00 0.00 0.00 91 1010.0
20260905072551 15 297 0.0 0.0 0.00 0.00 0.00 90 1010.0
20260905072049 15 279 0.0 0.0 0.00 0.00 0.00 90 1010.0
20260905071550 15 279 0.0 0.0 0.00 0.00 0.00 90 1010.1
20260905071052 15 276 0.0 0.0 0.00 0.00 0.00 90 1010.1
20260905070553 15 275 0.0 0.0 0.00 0.00 0.00 90 1010.2
20260905070049 15 256 0.0 0.0 0.00 0.00 0.00 90 1010.1
20260905065550 15 256 0.0 0.0 0.00 0.00 0.00 90 1010.1
20260905065050 15 270 0.0 0.0 0.00 0.00 0.00 90 1010.2
20260905064547 15 270 0.0 0.0 0.00 0.00 0.00 90 1010.3
20260905064049 15 270 0.0 0.0 0.00 0.00 0.00 90 1010.4
20260905063547 15 270 0.0 0.0 0.00 0.00 0.00 89 1010.3
20260905063046 15 270 0.0 0.0 0.00 0.00 0.00 89 1010.3
20260905062547 15 270 0.0 0.0 0.00 0.00 0.00 89 1010.4
20260905062048 15 270 0.0 0.0 0.00 0.00 0.00 88 1010.4
20260905061545 15 270 0.0 0.0 0.00 0.00 0.00 88 1010.4
20260905061048 15 270 0.0 0.0 0.00 0.00 0.00 88 1010.4
20260905060549 15 270 0.0 0.0 0.00 0.00 0.00 87 1010.3
20260905060046 15 270 0.0 0.0 0.00 0.00 0.00 87 1010.4
20260905055543 15 270 0.0 0.0 0.00 0.00 0.00 87 1010.4
20260905055043 15 270 0.0 0.0 0.00 0.00 0.00 86 1010.5
20260905054546 15 270 0.0 0.0 0.00 0.00 0.00 86 1010.6
20260905054042 15 270 0.0 0.0 0.00 0.00 0.00 86 1010.5
20260905053542 15 270 0.0 0.0 0.00 0.00 0.00 86 1010.6
20260905053100 15 270 0.0 0.0 0.00 0.00 0.00 86 1010.7
20260905052541 15 312 0.0 0.0 0.00 0.00 0.00 86 1010.7
20260905052040 15 251 0.0 0.0 0.00 0.00 0.00 86 1010.7
20260905051539 15 251 0.0 0.0 0.00 0.00 0.00 86 1010.7
20260905051039 15 293 0.0 0.0 0.00 0.00 0.00 86 1010.8
20260905050539 15 293 0.0 0.0 0.00 0.00 0.00 86 1010.8
20260905050039 15 293 0.0 0.0 0.00 0.00 0.00 86 1010.8
20260905045540 15 293 0.0 0.0 0.00 0.00 0.00 87 1010.8
20260905045038 15 293 0.0 0.0 0.00 0.00 0.00 87 1010.8
20260905044538 15 293 0.0 0.0 0.00 0.00 0.00 87 1010.8
20260905044037 15 293 0.0 0.0 0.00 0.00 0.00 87 1010.9
20260905043537 15 293 0.0 0.0 0.00 0.00 0.00 87 1010.9
20260905043037 15 293 0.0 0.0 0.00 0.00 0.00 87 1010.9
20260905042538 15 292 0.0 0.0 0.00 0.00 0.00 88 1010.9
20260905042034 15 294 0.0 0.0 0.00 0.00 0.00 88 1010.9
20260905041532 15 294 0.0 0.0 0.00 0.00 0.00 88 1010.9
20260905041032 15 293 0.0 0.0 0.00 0.00 0.00 88 1010.9
20260905040534 15 293 0.0 0.0 0.00 0.00 0.00 89 1010.9